Location: Killam
(52.7910°N, 111.8608°W)
Time: 16:36:35
(UTC+00:00)

Vanguard 2 Rocket - Pass Details

Date: 19 February 2026
Orbit: 553 x 3286 km, 32.9° (Epoch: 11 March)

Event Time Altitude Azimuth Distance (km) Brightness Sun altitude
Rises 16:29:04 0° 179° (S) 7,167 12.1 14.1°
Reaches altitude 10° 16:39:42 10° 152° (SSE) 6,206 12.8 15.3°
Maximum altitude 16:44:40 11° 137° (SE) 5,977 14.2 15.8°
Drops below altitude 10° 16:49:26 10° 122° (ESE) 5,939 13.0 16.3°
Sets 16:58:36 0° 96° (E) 6,424 12.0 17.3°
